www.pogodaiklimat.ru

Погода и климат >> Архив погоды >> Россия >> Челябинская область >> Карталы


ПОГОДА в Карталы

  • Прогноз погоды в Карталы
  • Монитор погоды в Карталы

АРХИВ ПОГОДЫ в Карталы

Время (UTC), дата Ветер
(напр.,м/с)
 
Видим.   Явления Облачность Т
(С)
Тd
(С)
f
(%)
Тe
(С)
Тes
(С)
Комфортность P
(гПа)
Po
(гПа)
Тmin
(С)
Tmax
(С)
R
(мм)
R24
(мм)
S
(см)
03 13.08 З 2 20 км 3/0
[Ac trans]
+14.0 +9.7 75 +14 +16 996.8 962.0 +10.5
06 13.08 Ю 1 20 км 1/0
[Ci fib]
+22.7 +8.9 41 +24 +37 комфорт 996.0 962.2
09 13.08 С 5-10
{10}
10 км 10/3 600 м
[Cu med, cong Cs]
+25.1 +9.8 38 +26 +30 жарко 995.8 962.3
12 13.08 С 3
{10}
10 км гроза без осадков {ливн. осадки} 9/9 600 м
[Cb cap]
+18.4 +12.5 68 +19 +19 997.8 963.5
15 13.08 СЗ 2 10 км {гроза, ливн. осадки} 10/10 600 м
[Cb cap]
+16.0 +13.9 87 +16 +16 1000.2 965.5 +26.7 3
18 13.08 С 1 4000 м {гроза, ливн. осадки} 8/4 600 м
[Cb cap Ac trans]
+13.6 +12.5 93 +14 +14 1001.5 966.5
21 13.08 Ю 1 4000 м 3/3 600 м
[Cb cap Ac trans]
+12.7 +11.7 94 +13 +13 1002.1 967.0
00 14.08 Ю 1 20 км 10/0
[Ac As]
+12.8 +11.9 94 +13 +13 1003.2 968.0
03 14.08 Ю 2 200 м туман 10/0
[As trans]
+12.8 +11.9 94 +12 +13 1003.2 970.3 +11.3 0.3
06 14.08 Ю 2 20 км {туман} ясно +18.9 +9.8 55 +20 +31 1007.0 972.4
09 14.08 ЮВ 3 20 км 6/4 600 м
[Cu med, cong Ci fib]
+22.8 +5.8 33 +23 +29 комфорт 1007.0 972.9
12 14.08 ЮВ 2 20 км 8/6 600 м
[Cu hum Ci]
+22.9 +4.7 31 +23 +25 комфорт 1007.5 973.3
15 14.08 С 2 10 км 9/0
[Ac und]
+20.8 +7.7 43 +23 +23 комфорт 1009.0 974.6 +24.1
18 14.08 СЗ 1 20 км 10/0
[Ac As]
+17.2 +14.5 84 +18 +18 1011.0 976.1
21 14.08 З 1 4000 м ясно +14.7 +13.5 93 +15 +15 1011.2 976.1
00 15.08 СЗ 2 20 км ясно +11.6 +10.7 94 +10 +10 1012.6 976.9
03 15.08 С 3 10 км ясно +16.1 +14.0 87 +16 +18 1013.4 978.3 +11.0
06 15.08 СВ 4 20 км 1/1 600 м
[Cu hum]
+22.6 +12.6 53 +25 +32 комфорт 1013.3 979.0
09 15.08 С 3 20 км 6/6 600 м
[Cu med, cong]
+24.4 +9.5 39 +25 +29 комфорт 1013.4 979.2
12 15.08 СВ 4
{10}
20 км 6/6 600 м
[Cb calv]
+25.1 +8.3 34 +25 +27 комфорт 1013.2 979.1
15 15.08 СВ 2 20 км 4/0
[Ac trans]
+21.8 +9.0 44 +23 +23 комфорт 1014.3 979.8 +25.9
18 15.08 СЗ 1 4000 м ясно +14.9 +9.7 71 +15 +15 1016.4 981.0
21 15.08 З 2 4000 м 3/0
[Ac trans]
+12.2 +9.3 82 +11 +11 1016.9 981.2
00 16.08 СЗ 2 20 км 10/0
[Ac As]
+11.1 +9.1 87 +10 +10 1018.3 982.4
03 16.08 СЗ 1 10 км 10/0
[Ac trans Cc]
+16.9 +12.9 77 +18 +20 1018.0 982.8 +11.0
06 16.08 СЗ 3 10 км 8/8 600 м
[Cu med, cong]
+24.5 +12.1 46 +26 +28 жарко 1017.0 982.7
09 16.08 СВ 3 10 км 6/5 600 м
[Cu med, cong Ci sp]
+27.0 +10.4 35 +28 +32 жарко 1015.7 981.7
12 16.08 С 2 10 км 6/5 600 м
[Cu hum Ci fib]
+28.1 +8.4 29 +28 +30 жарко 1015.1 981.3
15 16.08 С 1 20 км ясно +24.7 +9.6 38 +25 +25 комфорт 1015.9 981.7 +28.5
18 16.08 З 1 4000 м ясно +17.7 +10.8 64 +19 +19 1017.4 982.3
21 16.08 СЗ 1 4000 м ясно +13.8 +10.6 81 +14 +14 1018.4 982.8
00 17.08 З 2 4000 м ясно +12.4 +10.1 86 +11 +11 1019.1 983.4
03 17.08 З 1 20 км 10/0
[Cs]
+17.9 +11.8 67 +19 +21 1018.8 983.7 +12.1
06 17.08 З 1 20 км 10/0
[Cs]
+27.8 +8.8 30 +28 +37 жарко 1017.6 983.6
09 17.08 СЗ 2 20 км 10/1 600 м
[Cu hum Cs]
+30.9 +9.8 27 +30 +39 жарко 1016.8 983.2
12 17.08 З 1 20 км 10/0
[Ac und Ci fib]
+31.2 +8.9 25 +30 +34 жарко 1016.2 982.7
15 17.08 В 1 20 км 10/0
[Ac As Cc]
+26.6 +10.8 37 +27 +27 жарко 1017.3 983.2 +31.7
18 17.08 З 1 4000 м 10/0
[Cs]
+21.2 +11.7 55 +23 +23 комфорт 1018.3 983.6
21 17.08 З 1 4000 м 3/0
[Ac trans Ci fib]
+17.1 +11.3 69 +18 +18 1019.2 984.0
00 18.08 З 1 4000 м ясно +15.4 +10.3 72 +16 +16 1019.5 984.1
03 18.08 штиль 0 20 км 10/0
[Cs]
+21.1 +10.2 50 +23 +25 комфорт 1019.4 984.6 +14.8
06 18.08 ЮЗ 2 10 км 10/0
[Cs]
+31.7 +7.3 22 +30 +38 жарко 1018.2 984.7
09 18.08 ЮЗ 3 20 км 10/3 600 м
[Cu hum Cc]
+32.1 +6.1 20 +30 +36 жарко 1017.8 984.3
12 18.08 СЗ 3 20 км 10/6 600 м
[Cu med, cong Cs]
+33.8 +7.0 19 +32 +33 жарко 1017.8 984.5
15 18.08 С 1 20 км 8/0
[Ac trans Ci sp]
+28.3 +8.3 28 +28 +28 жарко 1019.1 985.1 +34.2
18 18.08 З 1 4000 м 8/0
[Ac As]
+21.0 +10.4 51 +24 +24 комфорт 1021.2 986.4
21 18.08 СЗ 1 20 км 10/6 600 м
[Cb calv Ac trans]
+19.9 +10.9 56 +22 +22 комфорт 1021.7 986.7
00 19.08 СЗ 1 20 км 10/0
[Ac As Ci fib]
+16.7 +11.3 70 +18 +18 1023.1 987.7
03 19.08 СВ 1 20 км 9/0
[Ac As Ci sp]
+20.0 +13.6 67 +23 +25 комфорт 1023.7 988.7 +16.2
06 19.08 СВ 3 20 км 10/0
[Ac und Ci fib]
+27.1 +14.7 47 +30 +33 душно 1023.6 989.4
09 19.08 Ю 1 20 км 10/3 600 м
[Cu hum Ac trans]
+30.5 +11.6 31 +31 +35 жарко 1022.9 989.1
12 19.08 С 1
{11}
20 км 10/6 600 м
[Cu hum Ac trans Ci fib]
+31.1 +9.8 27 +31 +32 жарко 1022.4 988.7
15 19.08 СВ 2 10 км 9/0
[Ac und]
+26.1 +11.8 41 +27 +27 жарко 1023.7 989.4 +32.2
18 19.08 СВ 1 20 км 10/0
[Ac As]
+21.7 +15.5 68 +25 +25 комфорт 1024.8 990.0
21 19.08 С 1 4000 м 3/0
[Ac trans]
+18.7 +15.3 81 +21 +21 комфорт 1024.3 989.2

 

Местоположение метеостанции Карталы (Челябинская область, Россия): широта 53.05 долгота 60.67 высота над уровнем моря 300 м.

В архиве по умолчанию представлена погода в Карталы за последнюю неделю. Архивные данные за месяц целиком и за предыдущие месяцы, начиная с января 2011 года, Вы можете получить, выбрав интересующий диапазон дат из раскрывающегося списка и нажав кнопку "Ввод!".


*Определитесь, кто Вы:
робот инопланетянин человек

Внимание! Время в таблицах - всемирное. Для получения местного времени необходимо прибавить поправку, которая равна 5 ч.

Смотрите также архив погоды в соседних городах и на ближайших метеорологических станциях:

Погода в Аршалынском (Акмолинская область, Казахстан) (51 км)
Погода в Бредах (Челябинская область, Россия) (72 км)
Погода в Михайловке (Костанайская область, Казахстан) (90 км)
Погода в Житикаре (Костанайская область, Казахстан) (94 км)
Погода в Магнитогорске (Челябинская область, Россия) (111 км)
Погода в Карабалыке (Костанайская область, Казахстан) (125 км)
Погода в Кизильском (Челябинская область, Россия) (126 км)
Погода в Троицке (Челябинская область, Россия) (131 км)
Погода в Айдырля (Оренбургская область, Россия) (134 км)
Погода в Верхнеуральске (Челябинская область, Россия) (134 км)

Пояснения к столбцам:

Ветер - указаны скорость ветра в м/с - средняя за 10 мин, порывы в срок и между сроками (в фигурных скобках) и направление, откуда дует ветер: С - северный, СВ - северо-восточный, В - восточный, ЮВ - юго-восточный, Ю - южный, ЮЗ - юго-западный, З - западный, СЗ - северо-западный.
Видимость - горизонтальная дальность видимости в метрах или километрах. При видимости от 1 до 10 км при отсутствии осадков обычно наблюдается дымка, при ухудшении видимости до 1 км и менее - туман. В сухую погоду видимость может ухудшаться дымом, пылью или мглою.
Явления - указаны атмосферные явления, наблюдавшиеся в срок или в последний час перед сроком; фигурными скобками обозначены явления, наблюдавшиеся между сроками (за 1-3 часа до срока); квадратными скобками обозначены град или гололедные отложения с указанием их диаметра в мм.
Облачность - указаны через наклонную черту общая и нижняя облачность в баллах и высота нижней границы облаков в метрах; квадратными скобками обозначены формы облаков: Ci - перистые, Cs - перисто-слоистые, Cc - перисто-кучевые, Ac - высококучевые, As - высокослоистые, Sc - слоисто-кучевые, Ns - слоисто-дождевые, Cu - кучевые, Cb - кучево-дождевые. Подробнее классификацию облаков см. в Атласе облаков (PDF).
T - Температура воздуха - температура, измеренная на высоте 2 м над землей.
Td - Температура точки росы - температура, при понижении до которой содержащийся в воздухе водяной пар достигнет насыщения.
f - Относительная влажность воздуха - влажноcть воздуха, измеренная на высоте 2 м над землей.
Te - Эффективная температура - температура, которую ощущает одетый по сезону человек в тени. Характеристика душности погоды. При расчете учитывается влияние влажности воздуха и скорости ветра на теплоощущения человека.
Tes - Эффективная температура на солнце - температура, которую ощущает человек, с поправкой на солнечный нагрев. Характеристика знойности погоды. Зависит от высоты солнца над горизонтом, облачности и скорости ветра. Ночью, в пасмурную погоду, а также при ветре 12 м/с и более поправка равна нулю.
P - Атмосферное давление - приведенное к уровню моря атмосферное давление.
Po - Атмосферное давление - измеренное на уровне метеостанции атмосферное давление.
Tmin - Минимальная температура - минимум температуры воздуха на высоте 2 м над землей.
Tmax - Максимальная температура - максимум температуры воздуха на высоте 2 м над землей.
R - Количество осадков - Количество выпавших осадков за период времени, мм. При наведении курсора мыши на число - период времени, за который выпало указанное количество осадков.
R24 - Количество осадков - Количество выпавших осадков за 24 часа, мм.
S - Снежный покров - Высота снежного покрова, см. При наведении курсора мыши на число - состояние снежного покрова и степень покрытия местности в баллах.